Regional Weather Roundup
Issued by NWS

Home | Current Version | Previous Version | Graphics & Text | Print | Product List | Glossary On
Versions: 1 2 3 4 5 6 7 8 9 10 11 12 13 14 15 16 17 18 19 20 21 22 23 24 25 26 27 28 29 30 31 32 33 34 35 36 37 38 39 40 41 42 43 44 45 46 47 48 49 50
000
ASUS43 KIND 272059
RWRIN

WEATHER ROUNDUP FOR INDIANA
NATIONAL WEATHER SERVICE INDIANAPOLIS IN
400 PM EST FRI FEB 27 2015

NOTE: "FAIR" INDICATES FEW OR NO CLOUDS BELOW 12,000 FEET WITH NO
SIGNIFICANT WEATHER AND/OR OBSTRUCTIONS TO VISIBILITY.

* - STATION DOES NOT REPORT WEATHER SUCH AS PRECIPITATION OR FOG.

+ - STATION NOT QUALITY CONTROLLED BY THE NATIONAL WEATHER SERVICE.
    USE DATA WITH CAUTION...ESPECIALLY DEWPOINT AND RELATIVE
    HUMIDITY OBSERVATIONS.

INZ001>003-010>013-019-020-272200-
NORTHWEST INDIANA

CITY           SKY/WX    TMP DP  RH WIND       PRES   REMARKS
GARY /AIRPORT/ SUNNY     18  -8  32 W10       30.61S WCI   6
VALPARAISO     NOT AVBL

$$

LMZ046-743>745-272200-
SOUTHERN LAKE MICHIGAN

STATION/POSITION TIME  TEMP WIND        PRES
                       AIR  DIR/SP/G
                 (UTC) (F)  (DEG/KT/KT) (MB)
MICHIGAN CITY    2000   15  250/  7/  9   N/A

$$

INZ004-005-014>016-021>024-272200-
NORTH CENTRAL INDIANA

CITY           SKY/WX    TMP DP  RH WIND       PRES   REMARKS
ELKHART        FAIR      18  -2  41 SW8       30.58S WCI   7
GOSHEN         PTSUNNY   16   3  56 SW8       30.57S WCI   5
SOUTH BEND     SUNNY     18  -1  43 W7        30.58S WCI   9
WARSAW +       CLOUDY    18   3  53 W7        30.57S WCI   8

$$

INZ006>009-017-018-025>027-272200-
NORTHEAST INDIANA

CITY           SKY/WX    TMP DP  RH WIND       PRES   REMARKS
ANGOLA *+      SUNNY     16   1  53 SW9       30.55S WCI   4
FORT WAYNE     PTSUNNY   16   2  54 W5        30.59R WCI   9

$$

INZ028-029-035-036-043>045-051>053-272200-
WEST CENTRAL INDIANA

CITY           SKY/WX    TMP DP  RH WIND       PRES   REMARKS
GREENCASTLE +  SUNNY     18  -4  38 N5        30.59S WCI  11
LAFAYETTE      SUNNY     15  -2  46 N7        30.62S WCI   5
TERRE HAUTE    SUNNY     17  -1  45 NW8       30.62S WCI   7

$$

INZ030>032-037>040-046>048-054>057-064-065-272200-
CENTRAL INDIANA

CITY           SKY/WX    TMP DP  RH WIND       PRES   REMARKS
ANDERSON       SUNNY     18   0  45 NW12      29.59F WCI   5
CP ATTERBURY + SUNNY     21   3  45 N7        30.60S WCI  13
GREENWOOD *+   SUNNY     18  -2  41 NW8       30.60R WCI   7
INDIANAPOLIS   MOSUNNY   17  -1  45 W10       30.59R WCI   5
-EAGLE CREEK   SUNNY     15  -2  46 NW7       30.59S WCI   5
KOKOMO *+      SUNNY     18   9  68 NW7       30.60S WCI   8
MT COMFORT *+  SUNNY     19 -15  21 W5        30.59R WCI  13
SHELBYVILLE    SUNNY     20   1  43 NW6       30.59R WCI  12

$$

INZ033-034-041-042-049-050-058-059-272200-
EAST CENTRAL INDIANA

CITY           SKY/WX    TMP DP  RH WIND       PRES   REMARKS
MUNCIE         SUNNY     16   0  49 CALM      30.58S

$$

INZ060-061-067>069-081>083-085>088-272200-
SOUTHWEST INDIANA

CITY           SKY/WX    TMP DP  RH WIND       PRES   REMARKS
EVANSVILLE     MOSUNNY   22   8  55 VRB5      30.62S WCI  16
HUNTINGBURG *+ SUNNY     21   9  58 NW7       30.61F WCI  13

$$

INZ062-063-066-070>080-084-089>092-272200-
SOUTH CENTRAL AND SOUTHEAST INDIANA

CITY           SKY/WX    TMP DP  RH WIND       PRES   REMARKS
BLOOMINGTON    MOSUNNY   21   0  39 NE7       30.57S WCI  12
SEYMOUR +      SUNNY     25   5  42 CALM      30.61S

$$



USA.gov is the U.S. government's official web portal to all federal, state and local government web resources and services.